Regional Weather Roundup
Issued by NWS Wakefield, VA

Home | Current Version | Previous Version | Text Only | Print | Product List | Glossary Off
Versions: 1 2 3 4 5 6 7 8 9 10 11 12 13 14 15 16 17 18 19 20 21 22 23 24 25 26 27

000
ASUS41 KAKQ 272215
RWRAKQ

REGIONAL WEATHER ROUNDUP
NATIONAL WEATHER SERVICE WAKEFIELD VA
500 PM EST MON FEB 27 2017

Note: "fair" indicates few or no clouds below 12,000 feet with no
significant weather and/or obstructions to visibility. * = Denotes
station may not report precipitation (e.g., rain,snow,etc.),
thunder or fog.

VAZ042-051-052>054-056-272300-
NORTHERN VIRGINIA

CITY           SKY/WX    TMP DP  RH WIND       PRES   REMARKS
WASH NATIONAL  CLOUDY    54  33  45 S8        30.40S
DULLES         CLOUDY    54  20  26 S6        30.37F
FORT BELVOIR   CLOUDY    54  28  36 SE8       30.39S
QUANTICO       CLOUDY    54  36  50 CALM      30.40S
FREDERICKSBRG* CLOUDY    56  31  38 SE8       30.37F
STAFFORD*      CLOUDY    54  28  36 CALM      30.42F
WARRENTON      CLOUDY    56  18  22 CALM      30.36F
CULPEPER*      CLOUDY    56  26  31 CALM      30.39R
MANASSAS*      MOSUNNY   55  26  32 S6        30.37F
LEESBURG*      CLOUDY    54  28  37 MISG      30.37F
WINCHESTER     CLOUDY    50  23  34 SE5       30.34S
FRONT ROYAL*   CLOUDY    52  27  37 CALM      30.34R
LURAY*         CLOUDY    54  28  37 S6        30.33F
$$

VAZ048-049-060>072-079>083-272300-
CENTRAL AND SOUTH CENTRAL VIRGINIA

CITY           SKY/WX    TMP DP  RH WIND       PRES   REMARKS
RICHMOND       CLOUDY    59  27  29 VRB3      30.37F
CHESTERFIELD*  FAIR      61  21  21 S6        30.39R
PETERSBURG*    CLOUDY    60  22  23 S3        30.38S
HANOVER        CLOUDY    57  32  38 CALM      30.38F
TAPPAHANNOCK*  CLOUDY    59  12  16 CALM      30.40S
QUINTON*       FAIR      60  26  26 CALM      30.38S
CHARLOTTSVILLE CLOUDY    57  23  26 CALM      30.35S
GORDONSVILLE*  CLOUDY    56  27  32 MISG      30.36R
ORANGE*        CLOUDY    55  27  33 CALM      30.38R
LOUISA*        LGT RAIN  61  28  29 CALM      30.36S
BUMPASS*       CLOUDY    56  25  29 CALM      30.36F
FARMVILLE*     CLOUDY    60  28  29 CALM      30.34S
CREWE*         FAIR      60  27  28 S5        30.35S
FORT PICKETT*  NOT AVBL
CHASE CITY*    FAIR      60  23  24 CALM      30.34S
CLARKSVILLE*   FAIR      61  28  29 S3        30.34S
SOUTH HILL*    CLOUDY    60  26  27 S6        30.41S
LAWRENCEVILLE* FAIR      60  25  25 S3        30.36R
EMPORIA*       CLOUDY    61  27  27 SE3       30.38S
$$

VAZ088>098-272300-
SOUTHEAST VIRGINIA

CITY           SKY/WX    TMP DP  RH WIND       PRES   REMARKS
NORFOLK        CLOUDY    63  24  22 SW13      30.39R
VIRGINIA BEACH CLOUDY    53  36  52 SE7       30.40R
NORFOLK NAVAL  CLOUDY    62  21  20 SW6       30.39S
WEST POINT*    CLOUDY    58  31  36 E3        30.41S
SALUDA*        FAIR      54  35  49 E5        30.40R
NEWPORT NEWS   PTSUNNY   60  27  28 SW3       30.38F
LANGLEY AFB    CLOUDY    56  40  55 E6        30.38F
FORT EUSTIS    MOSUNNY   60  30  31 CALM      30.36S
WILLIAMSBURG*    N/A    N/A N/A N/A MISG      30.38S
HR EXEC AP*    FAIR      63  27  25 S5        30.37F
FRANKLIN*      CLOUDY    62  27  26 S5        30.38F
US460-WAKEFLD  CLOUDY    62  24  23 CALM      30.37F
$$

VAZ020-022-025-037-045-272300-
WEST CENTRAL AND SOUTHWEST VIRGINIA

CITY           SKY/WX    TMP DP  RH WIND       PRES   REMARKS
STAUNTON*      CLOUDY    51  26  37 CALM      30.36S
WAYNESBORO*    CLOUDY    51  20  29 SE3       30.33F
HOT SPRINGS VA CLOUDY    41  18  38 S9        30.29F
LYNCHBURG      CLOUDY    57  25  29 SE5       30.32F
DANVILLE       MOSUNNY   60  27  28 VRB6      30.31F
SOUTH BOSTON*  FAIR      61  20  20 S5        30.33F
MARTINSVILLE   CLOUDY    57  25  29 SW6       30.33S
ROANOKE        CLOUDY    56  25  30 S3        30.31F
BLACKSBURG     CLOUDY    52  25  34 S3        30.31F
DUBLIN*        CLOUDY    53  26  35 S9        30.32R
MARION*        CLOUDY    52  17  24 S9G17     30.31R
HILLSVILLE*    CLOUDY    48  30  49 S7        30.30R
RICHLANDS*     CLOUDY    53  26  34 CALM      30.25R
WISE*          CLOUDY    52  25  35 CALM      30.24R
ABINGDON*      CLOUDY    57  19  22 SW8       30.25S
$$

MDZ021>025-VAZ099-100-272300-
SOUTHERN MARYLAND AND THE DELMARVA PENINSULA

CITY           SKY/WX    TMP DP  RH WIND       PRES   REMARKS
PATUXENT RIVER CLOUDY    51  35  54 SE9       30.41S
BAY BRIDGE APT CLOUDY    50  36  57 S7        30.42R
LEONARDTOWN    CLOUDY    52  32  46 SE3       30.42S
DOVER          CLOUDY    53  35  50 SW12      30.42R
GEORGETOWN     CLOUDY    56  26  31 SW5       30.43R
EASTON         CLOUDY    54  32  43 S6        30.44S
CAMBRIDGE      PTCLDY    54  30  40 S10       30.42S
SALISBURY      CLOUDY    55  31  39 SE6       30.43R
OCEAN CITY     MOCLDY    50  37  61 CALM      30.45R
WALLOPS ISLAND MOCLDY    51  35  54 SE3       30.45R
ACCOMACK*      MOCLDY    54  33  45 SE3       30.41F
$$

NCZ012>017-030>032-272300-
NORTH CENTRAL AND EASTERN NORTH CAROLINA

CITY           SKY/WX    TMP DP  RH WIND       PRES   REMARKS
ROANOKE RAPIDS FAIR      63  27  25 S6        30.37S
RALEIGH        PTSUNNY   63  20  19 S10       30.34F
ELIZABETH CITY MOSUNNY   60  45  57 E8        30.40R
AHOSKIE*         N/A     63  31  30 S3        30.37F
EDENTON*       MOSUNNY   65  46  48 S7        30.40S
CURRITUCK*     MOSUNNY   63  40  41 E5        30.41R
KILL DEVIL HLS NOT AVBL
MANTEO         PTSUNNY   60  43  54 SE5       30.42R
CAPE HATTERAS  MOSUNNY   66  52  60 SE13      30.40R
TARBORO*       NOT AVBL
GOLDSBORO      PTSUNNY   67  43  41 S8        30.35S
WASHINGTON     MOSUNNY   64  42  44 SE6       30.39S
GREENVILLE     PTSUNNY   66  41  39 S7        30.37F
NEW BERN       PTSUNNY   63  44  50 SE3       30.40R
WILMINGTON     PTSUNNY   66  50  56 VRB5      30.37S
$$

VAZ048-272300-
ELSEWHERE

CITY           SKY/WX    TMP DP  RH WIND       PRES   REMARKS
HARRISBURG PA  CLOUDY    49  34  56 W3        30.36F
BALTIMORE      CLOUDY    53  25  33 SE3       30.39R
ANNAPOLIS      CLOUDY    50  38  63 S8        30.41R
ANDREWS AFB    MOSUNNY   53  27  37 S7        30.39R
PHILADELPHIA   CLOUDY    53  24  32 SW13      30.41R
HENDERSON NC   PTSUNNY   59  20  22 S9        30.34F
GREENSBORO     CLOUDY    59  25  27 S10       30.32S
ROCKY MOUNT    MOSUNNY   65  33  30 S9        30.36F
$$

VAZ100-272300-
MARINE

STATION/POSITION TIME  TEMP    WIND        PRES    WAVE   SWELL
                       AIR SEA DIR/SP/G            HT/PER HT/PER
                 (UTC) (F)     (DEG/KT/KT) (MB)    (FT/S) (FT/S)
CAPE MAY NJ      2148   49 45  180/ 10/ 13 1030.1R
LEWES DE         2148   54 44  180/  5/  8 1030.5R
OCEAN-CITY-INLET 2148          210/  6/  8   N/A
WACHAPREAGUE VA  2142   52 54  150/  4/  5 1030.3R
THOMAS POINT MD  2200   48 44  170/ 12/ 12   N/A
GOOSES REEF MD   2150   47     170/  4/ 10 1030.4S
COVE POINT MD    2142   48     180/  9/ 10 1030.1F
SOLOMONS ISLAND  2148          110/  6/  7   N/A
BISHOPS HEAD MD  2148   50 49  110/  3/  4 1030.5R
PINEY POINT MD   2148          140/  7/  7   N/A
POTOMAC MD       2150   49     170/  6/  6 1029.1R
CAMBRIDGE MD     2148   54 47  160/  5/  8 1029.0F
LEWISETTA VA     2142   54 49  140/  6/  6 1029.5R
RAPPAHANNOCK LGT 2148          110/  7/  8 1030.3R
YORK RVR RNG VA  2142   50     120/ 12/ 13 1028.7R
YORKTOWN VA      2142   52 50   80/  7/  8 1029.0R
JAMESTOWN VA     2150   59     160/  2/  4   N/A
DOMINION TERM VA 2142   60     220/  5/  5 1029.1R
KIPTOPEKE VA     2148      51  130/  6/ 11   N/A
CHES BAY BRIDGE  2142   53 49  140/  7/ 10 1029.3R
CAPE HENRY VA    2142   52     150/  8/ 12   N/A
WILLOUBY STN VA  2142   55      20/  2/  3 1030.1R
S CRANEY ISL VA  2142   62     220/  3/  6 1029.0R
CAPE HENRY BUOY  2142      50                N/A     2/ 8
OFFSHORE WE BUOY 2151      50                N/A     2/ 8
64NM E OF VA BCH 2150   52 51   70/  4/  4 1029.7S   3/ 8   2/ 8
DUCK PIER NC     2142   54 50  140/  6/  6 1029.3R
44100 DUCK FRF   2135      51                N/A     2/ 9
44056 DUCK FRF   2130      51                N/A     2/ 8
OREGON INLET NC  2148           60/  3/  5   N/A
HATTERAS NC      2142   66 61  170/  8/ 12 1028.9R
DIAMOND SHLS NC  2150   66 72  140/ 12/ 16 1029.0F   3/ 8   3/ 8
CAPE LOOKOUT NC  2100   60      30/  9/ 11 1028.3F
$$




USA.gov is the U.S. government's official web portal to all federal, state and local government web resources and services.